User: anonymous   Login
Location: Unspecified
(0.0000°N, 0.0000°E)
Time: 01:06:59
(UTC+00:00)
Language:

INTELSAT 34 - Orbit

View from above orbital plane
View from above orbital plane
View from above satellite
View from above satellite

Ground track
Ground track

The orbit is defined by the following mean orbital elements,

1 40874U          26144.85983779 +.00000000 +00000-0 +00000-0 0 00009
2 40874   0.0097 314.0541 0000602  28.1116 154.3402  1.00271651    08
Epoch (UTC): 24 May 2026 20:38:09
Eccentricity: 0.0000602
inclination: 0.0097°
perigee height: 35784 km
apogee height: 35789 km
right ascension of ascending node: 314.0541°
argument of perigee: 28.1116°
revolutions per day: 1.00271651
mean anomaly at epoch: 154.3402°

The dashed part of the orbit path shows where the satellite is in the earth's shadow,  

DLR